This demonstration page uses our WeatherBlox Daily Observations layout. Learn more.

Left ArrowRight Arrow

Hourly Observations for October 15, 2020

Temp ( °F °C ) Dew Point ( °F °C ) Humidity (%) Winds ( mph kmh ) Pressure ( in mb ) Visibility ( mi km ) Precip ( " mm )
12:53 am 00:53 Mostly Clear 53 11.7 36 2.2 52 52 NNW 16 26 30.05 1018 10 16 0.00 0.00
1:53 am 01:53 Clear 51 10.6 37 2.8 59 59 N 16 26 30.05 1018 10 16 0.00 0.00
2:53 am 02:53 Clear 49 9.4 37 2.8 64 64 NNW 18 30 30.09 1019 10 16 0.00 0.00
3:53 am 03:53 Clear 47 8.3 37 2.8 69 69 NNW 13 20 30.11 1020 10 16 0.00 0.00
4:53 am 04:53 Clear 45 7.2 36 2.2 71 71 NNW 13 20 30.14 1021 10 16 0.00 0.00
5:53 am 05:53 Clear 42 5.6 35 1.7 76 76 NNW 10 17 30.18 1022 10 16 0.00 0.00
6:53 am 06:53 Clear 40 4.4 34 1.1 79 79 NNW 10 17 30.21 1023 10 16 0.00 0.00
7:53 am 07:53 Sunny 37 2.8 31 -0.6 79 79 NNW 7 11 30.22 1023 10 16 0.00 0.00
8:53 am 08:53 Sunny 42 5.6 32 0 68 68 NNW 12 19 30.25 1024 10 16 0.00 0.00
9:53 am 09:53 Sunny 44 6.7 31 -0.6 60 60 NNW 14 22 30.27 1025 10 16 0.00 0.00
10:53 am 10:53 Sunny 47 8.3 25 -3.9 42 42 NW 17 28 30.28 1025 10 16 0.00 0.00
11:53 am 11:53 Sunny 49 9.4 24 -4.4 38 38 NW 15 24 30.27 1025 10 16 0.00 0.00
12:53 pm 12:53 Sunny 53 11.7 22 -5.6 30 30 NNW 18 30 30.27 1025 10 16 0.00 0.00
1:53 pm 13:53 Sunny 54 12.2 24 -4.4 31 31 NNW 18 30 30.25 1025 10 16 0.00 0.00
2:53 pm 14:53 Partly Cloudy 55 12.8 26 -3.3 33 33 NW 10 17 30.24 1024 10 16 0.00 0.00
3:53 pm 15:53 Mostly Cloudy 54 12.2 26 -3.3 34 34 NNW 15 24 30.24 1024 10 16 0.00 0.00
4:39 pm 16:39 Mostly Cloudy 55 12.8 26 -3.3 33 33 N 17 28 30.23 1024 10 16 0.00 0.00
4:53 pm 16:53 Cloudy 55 12.8 25 -3.9 31 31 N 14 22 30.25 1024 10 16 0.00 0.00
5:53 pm 17:53 Cloudy 55 12.8 25 -3.9 31 31 NW 12 19 30.25 1024 10 16 0.00 0.00
6:53 pm 18:53 Sunny 48 8.9 25 -3.9 41 41 NNW 3 6 30.27 1025 10 16 0.00 0.00
7:53 pm 19:53 Clear 44 6.7 24 -4.4 45 45 Calm 30.30 1026 10 16 0.00 0.00
8:53 pm 20:53 Clear 41 5 27 -2.8 57 57 WSW 3 6 30.32 1027 10 16 0.00 0.00
9:53 pm 21:53 Mostly Cloudy 40 4.4 27 -2.8 60 60 SW 3 6 30.33 1027 10 16 0.00 0.00
10:53 pm 22:53 Mostly Clear 39 3.9 26 -3.3 60 60 WSW 3 6 30.34 1028 8 13 0.00 0.00
11:53 pm 23:53 Clear 36 2.2 23 -5 59 59 W 3 6 30.36 1028 10 16 0.00 0.00

Powered by AerisWeather